Time,TemperatureF,DewpointF,PressureIn,WindDirection,WindDirectionDegrees,WindSpeedMPH,WindSpeedGustMPH,Humidity,HourlyPrecipIn,Conditions,Clouds,dailyrainin,SoftwareType,DateUTC
2013-02-13 00:02:00,73.0,69.0,30.00,SSE,164,0.0,3.0,86,0.00,,,0.00,,2013-02-13 05:02:00,
2013-02-13 00:11:00,73.0,69.0,29.99,SSE,164,0.0,3.0,86,0.00,,,0.00,,2013-02-13 05:11:00,
2013-02-13 00:22:00,73.0,69.0,29.99,SSE,164,0.0,3.0,86,0.00,,,0.00,,2013-02-13 05:22:00,
2013-02-13 00:32:00,73.0,69.0,29.99,SSE,168,3.0,5.0,87,0.00,,,0.00,,2013-02-13 05:32:00,
2013-02-13 00:42:00,73.0,69.0,29.99,SSE,168,3.0,5.0,87,0.00,,,0.00,,2013-02-13 05:42:00,
2013-02-13 00:52:00,73.0,69.0,29.99,SSE,165,1.0,4.0,87,0.00,,,0.00,,2013-02-13 05:52:00,
2013-02-13 01:02:00,73.0,69.0,29.99,SSE,168,0.0,4.0,87,0.00,,,0.00,,2013-02-13 06:02:00,
2013-02-13 01:11:00,73.0,69.0,29.98,SSE,167,2.0,4.0,88,0.00,,,0.00,,2013-02-13 06:11:00,
2013-02-13 01:21:00,73.0,69.0,29.98,SSE,167,2.0,4.0,88,0.00,,,0.00,,2013-02-13 06:21:00,
2013-02-13 01:32:00,73.0,69.0,29.98,South,169,3.0,6.0,88,0.00,,,0.00,,2013-02-13 06:32:00,
2013-02-13 01:42:00,73.0,69.0,29.98,SSE,151,2.0,5.0,88,0.00,,,0.00,,2013-02-13 06:42:00,
2013-02-13 01:51:00,73.0,69.0,29.98,SSE,151,2.0,5.0,88,0.00,,,0.00,,2013-02-13 06:51:00,
2013-02-13 02:02:00,73.0,69.0,29.98,SSE,159,1.0,5.0,88,0.00,,,0.00,,2013-02-13 07:02:00,
2013-02-13 02:11:00,73.0,70.0,29.98,SSE,161,2.0,5.0,89,0.00,,,0.00,,2013-02-13 07:11:00,
2013-02-13 02:22:00,73.0,70.0,29.98,SSE,161,2.0,5.0,89,0.00,,,0.00,,2013-02-13 07:22:00,
2013-02-13 02:32:00,73.0,70.0,29.97,SSE,162,1.0,6.0,89,0.00,,,0.00,,2013-02-13 07:32:00,
2013-02-13 02:42:00,73.0,70.0,29.97,South,173,1.0,6.0,89,0.00,,,0.00,,2013-02-13 07:42:00,
2013-02-13 02:51:00,73.0,70.0,29.97,South,173,1.0,6.0,89,0.00,,,0.00,,2013-02-13 07:51:00,
2013-02-13 03:01:00,73.0,70.0,29.96,SSE,159,2.0,7.0,89,0.00,,,0.00,,2013-02-13 08:01:00,
2013-02-13 03:11:00,73.0,70.0,29.96,SSE,161,3.0,7.0,89,0.00,,,0.00,,2013-02-13 08:11:00,
2013-02-13 03:21:00,73.0,70.0,29.96,SSE,161,3.0,7.0,89,0.00,,,0.00,,2013-02-13 08:21:00,
2013-02-13 03:32:00,73.0,70.0,29.96,SSE,155,4.0,9.0,89,0.00,,,0.00,,2013-02-13 08:32:00,
2013-02-13 03:43:00,73.0,70.0,29.96,SSE,155,4.0,9.0,89,0.00,,,0.00,,2013-02-13 08:43:00,
2013-02-13 03:52:00,73.0,70.0,29.95,SSE,162,4.0,9.0,89,0.00,,,0.00,,2013-02-13 08:52:00,
2013-02-13 04:02:00,73.0,70.0,29.95,SSE,156,3.0,11.0,89,0.00,,,0.00,,2013-02-13 09:02:00,
2013-02-13 04:11:00,73.0,70.0,29.95,South,178,4.0,8.0,89,0.00,,,0.00,,2013-02-13 09:11:00,
2013-02-13 04:21:00,73.0,70.0,29.95,South,178,4.0,8.0,89,0.00,,,0.00,,2013-02-13 09:21:00,
2013-02-13 04:31:00,73.0,70.0,29.95,SSE,159,0.0,5.0,89,0.00,,,0.00,,2013-02-13 09:31:00,
2013-02-13 04:42:00,73.0,70.0,29.96,SSE,163,1.0,5.0,89,0.00,,,0.00,,2013-02-13 09:42:00,
2013-02-13 04:52:00,73.0,70.0,29.96,SSE,163,1.0,5.0,89,0.00,,,0.00,,2013-02-13 09:52:00,
2013-02-13 05:01:00,73.0,70.0,29.96,SSE,163,2.0,4.0,90,0.00,,,0.00,,2013-02-13 10:01:00,
2013-02-13 05:11:00,73.0,70.0,29.96,South,169,1.0,5.0,90,0.00,,,0.00,,2013-02-13 10:11:00,
2013-02-13 05:21:00,73.0,70.0,29.96,South,169,1.0,5.0,90,0.00,,,0.00,,2013-02-13 10:21:00,
2013-02-13 05:32:00,73.0,70.0,29.96,South,170,2.0,5.0,90,0.00,,,0.00,,2013-02-13 10:32:00,
2013-02-13 05:42:00,73.0,70.0,29.96,South,173,3.0,8.0,90,0.00,,,0.00,,2013-02-13 10:42:00,
2013-02-13 05:52:00,73.0,70.0,29.96,South,173,3.0,8.0,90,0.00,,,0.00,,2013-02-13 10:52:00,
2013-02-13 06:01:00,73.0,70.0,29.96,South,177,3.0,7.0,90,0.00,,,0.00,,2013-02-13 11:01:00,
2013-02-13 06:11:00,73.0,70.0,29.96,SSE,150,2.0,6.0,90,0.00,,,0.00,,2013-02-13 11:11:00,
2013-02-13 06:22:00,73.0,70.0,29.96,SSE,150,2.0,6.0,90,0.00,,,0.00,,2013-02-13 11:22:00,
2013-02-13 06:32:00,73.0,70.0,29.96,SSE,152,2.0,8.0,90,0.00,,,0.00,,2013-02-13 11:32:00,
2013-02-13 06:42:00,73.0,70.0,29.96,South,175,3.0,7.0,90,0.00,,,0.00,,2013-02-13 11:42:00,
2013-02-13 06:52:00,73.0,70.0,29.96,South,175,3.0,7.0,90,0.00,,,0.00,,2013-02-13 11:52:00,
2013-02-13 07:02:00,73.0,70.0,29.96,South,178,3.0,6.0,89,0.00,,,0.00,,2013-02-13 12:02:00,
2013-02-13 07:11:00,73.0,70.0,29.97,South,184,4.0,8.0,89,0.00,,,0.00,,2013-02-13 12:11:00,
2013-02-13 07:22:00,73.0,70.0,29.97,South,184,4.0,8.0,89,0.00,,,0.00,,2013-02-13 12:22:00,
2013-02-13 07:32:00,73.0,70.0,29.97,SSE,165,3.0,9.0,89,0.00,,,0.00,,2013-02-13 12:32:00,
2013-02-13 07:42:00,73.0,70.0,29.97,SE,144,4.0,8.0,89,0.00,,,0.00,,2013-02-13 12:42:00,
2013-02-13 07:52:00,73.0,70.0,29.97,SE,144,4.0,8.0,89,0.00,,,0.00,,2013-02-13 12:52:00,
2013-02-13 08:02:00,74.0,71.0,29.97,SSE,163,4.0,9.0,89,0.00,,,0.00,,2013-02-13 13:02:00,
2013-02-13 08:11:00,74.0,70.0,29.97,SSE,167,4.0,9.0,87,0.00,,,0.00,,2013-02-13 13:11:00,
2013-02-13 08:21:00,74.0,70.0,29.97,SSE,167,4.0,9.0,87,0.00,,,0.00,,2013-02-13 13:21:00,
2013-02-13 08:32:00,75.0,71.0,29.98,SSE,161,5.0,11.0,86,0.00,,,0.00,,2013-02-13 13:32:00,
2013-02-13 08:42:00,75.0,70.0,29.98,South,184,6.0,11.0,85,0.00,,,0.00,,2013-02-13 13:42:00,
2013-02-13 08:51:00,75.0,70.0,29.98,South,184,6.0,11.0,85,0.00,,,0.00,,2013-02-13 13:51:00,
2013-02-13 09:01:00,75.0,70.0,29.98,SSW,205,6.0,13.0,85,0.00,,,0.00,,2013-02-13 14:01:00,
2013-02-13 09:11:00,76.0,71.0,29.98,SSE,167,5.0,13.0,85,0.00,,,0.00,,2013-02-13 14:11:00,
2013-02-13 09:21:00,76.0,71.0,29.98,SSE,167,5.0,13.0,85,0.00,,,0.00,,2013-02-13 14:21:00,
2013-02-13 09:32:00,76.0,71.0,29.98,SE,130,6.0,16.0,85,0.00,,,0.00,,2013-02-13 14:32:00,
2013-02-13 09:42:00,76.0,71.0,29.99,South,180,7.0,14.0,84,0.00,,,0.00,,2013-02-13 14:42:00,
2013-02-13 09:52:00,76.0,71.0,29.99,South,180,7.0,14.0,84,0.00,,,0.00,,2013-02-13 14:52:00,
2013-02-13 10:01:00,76.0,70.0,29.99,South,182,7.0,15.0,83,0.00,,,0.00,,2013-02-13 15:01:00,
2013-02-13 10:11:00,77.0,71.0,30.00,SSE,158,9.0,15.0,82,0.00,,,0.00,,2013-02-13 15:11:00,
2013-02-13 10:21:00,77.0,71.0,30.00,SSE,158,9.0,15.0,82,0.00,,,0.00,,2013-02-13 15:21:00,
2013-02-13 10:32:00,77.0,71.0,30.00,SSE,161,8.0,16.0,82,0.00,,,0.00,,2013-02-13 15:32:00,
2013-02-13 10:42:00,77.0,71.0,30.00,SSE,161,8.0,16.0,82,0.00,,,0.00,,2013-02-13 15:42:00,
2013-02-13 10:52:00,77.0,71.0,29.99,South,181,8.0,14.0,82,0.00,,,0.00,,2013-02-13 15:52:00,
2013-02-13 11:01:00,77.0,71.0,29.99,SSE,159,6.0,11.0,83,0.00,,,0.00,,2013-02-13 16:01:00,
2013-02-13 11:11:00,77.0,72.0,29.99,South,184,8.0,17.0,84,0.00,,,0.00,,2013-02-13 16:11:00,
2013-02-13 11:21:00,77.0,72.0,29.99,South,184,8.0,17.0,84,0.00,,,0.00,,2013-02-13 16:21:00,
2013-02-13 11:32:00,77.0,71.0,29.98,SSE,151,6.0,15.0,83,0.00,,,0.00,,2013-02-13 16:32:00,
2013-02-13 11:42:00,77.0,71.0,29.98,SSE,151,6.0,15.0,83,0.00,,,0.00,,2013-02-13 16:42:00,
2013-02-13 11:52:00,78.0,71.0,29.98,SSE,157,8.0,15.0,80,0.00,,,0.00,,2013-02-13 16:52:00,
2013-02-13 12:01:00,78.0,71.0,29.98,SSE,158,8.0,19.0,80,0.00,,,0.00,,2013-02-13 17:01:00,
2013-02-13 12:11:00,78.0,72.0,29.97,SE,133,7.0,21.0,81,0.00,,,0.00,,2013-02-13 17:11:00,
2013-02-13 12:21:00,78.0,72.0,29.97,SE,133,7.0,21.0,81,0.00,,,0.00,,2013-02-13 17:21:00,
2013-02-13 12:32:00,77.0,71.0,29.96,SSE,161,8.0,17.0,81,0.00,,,0.00,,2013-02-13 17:32:00,
2013-02-13 12:42:00,77.0,71.0,29.96,SSE,161,8.0,17.0,81,0.00,,,0.00,,2013-02-13 17:42:00,
2013-02-13 12:52:00,78.0,71.0,29.96,South,175,10.0,19.0,80,0.00,,,0.00,,2013-02-13 17:52:00,
2013-02-13 13:02:00,78.0,72.0,29.95,SSW,193,9.0,17.0,81,0.00,,,0.00,,2013-02-13 18:02:00,
2013-02-13 13:11:00,77.0,71.0,29.94,SE,142,6.0,19.0,81,0.00,,,0.00,,2013-02-13 18:11:00,
2013-02-13 13:23:00,77.0,71.0,29.94,SE,142,6.0,19.0,81,0.00,,,0.00,,2013-02-13 18:23:00,
2013-02-13 13:32:00,78.0,71.0,29.93,SSE,158,9.0,17.0,80,0.00,,,0.00,,2013-02-13 18:32:00,
2013-02-13 13:42:00,78.0,71.0,29.93,SSE,158,9.0,17.0,80,0.00,,,0.00,,2013-02-13 18:42:00,
2013-02-13 13:52:00,78.0,71.0,29.92,South,190,10.0,18.0,80,0.00,,,0.00,,2013-02-13 18:52:00,
2013-02-13 14:01:00,78.0,71.0,29.92,South,174,8.0,19.0,80,0.00,,,0.00,,2013-02-13 19:01:00,
2013-02-13 14:11:00,78.0,72.0,29.91,South,183,7.0,15.0,82,0.00,,,0.00,,2013-02-13 19:11:00,
2013-02-13 14:21:00,78.0,72.0,29.91,South,183,7.0,15.0,82,0.00,,,0.00,,2013-02-13 19:21:00,
2013-02-13 14:32:00,78.0,71.0,29.91,ESE,122,8.0,19.0,80,0.00,,,0.00,,2013-02-13 19:32:00,
2013-02-13 14:42:00,78.0,71.0,29.91,ESE,122,8.0,19.0,80,0.00,,,0.00,,2013-02-13 19:42:00,
2013-02-13 14:52:00,79.0,71.0,29.90,South,178,10.0,16.0,77,0.00,,,0.00,,2013-02-13 19:52:00,
2013-02-13 15:02:00,78.0,71.0,29.90,SE,146,11.0,21.0,79,0.00,,,0.00,,2013-02-13 20:02:00,
2013-02-13 15:11:00,77.0,71.0,29.90,South,173,10.0,18.0,81,0.00,,,0.00,,2013-02-13 20:11:00,
2013-02-13 15:21:00,77.0,71.0,29.90,South,173,10.0,18.0,81,0.00,,,0.00,,2013-02-13 20:21:00,
2013-02-13 15:32:00,78.0,72.0,29.89,SSE,157,9.0,19.0,81,0.00,,,0.00,,2013-02-13 20:32:00,
2013-02-13 15:42:00,78.0,71.0,29.89,South,175,9.0,20.0,80,0.00,,,0.00,,2013-02-13 20:42:00,
2013-02-13 15:52:00,78.0,71.0,29.89,South,175,9.0,20.0,80,0.00,,,0.00,,2013-02-13 20:52:00,
2013-02-13 16:01:00,78.0,71.0,29.89,SE,140,11.0,21.0,79,0.00,,,0.00,,2013-02-13 21:01:00,
2013-02-13 16:11:00,78.0,71.0,29.89,SSE,150,9.0,17.0,80,0.00,,,0.00,,2013-02-13 21:11:00,
2013-02-13 16:21:00,78.0,71.0,29.89,SSE,150,9.0,17.0,80,0.00,,,0.00,,2013-02-13 21:21:00,
2013-02-13 16:31:00,78.0,72.0,29.89,SSE,148,8.0,15.0,81,0.00,,,0.00,,2013-02-13 21:31:00,
2013-02-13 16:42:00,78.0,72.0,29.89,SSE,148,8.0,15.0,81,0.00,,,0.00,,2013-02-13 21:42:00,
2013-02-13 16:52:00,78.0,72.0,29.89,SSE,148,8.0,15.0,81,0.00,,,0.00,,2013-02-13 21:52:00,
2013-02-13 17:02:00,77.0,71.0,29.89,SE,144,8.0,18.0,82,0.00,,,0.00,,2013-02-13 22:02:00,
2013-02-13 17:11:00,77.0,71.0,29.89,South,170,5.0,15.0,83,0.00,,,0.00,,2013-02-13 22:11:00,
2013-02-13 17:21:00,77.0,71.0,29.89,South,170,5.0,15.0,83,0.00,,,0.00,,2013-02-13 22:21:00,
2013-02-13 17:32:00,77.0,71.0,29.89,SSE,148,8.0,15.0,81,0.00,,,0.00,,2013-02-13 22:32:00,
2013-02-13 17:42:00,77.0,71.0,29.89,SSE,148,8.0,15.0,81,0.00,,,0.00,,2013-02-13 22:42:00,
2013-02-13 17:52:00,78.0,71.0,29.89,SE,132,4.0,10.0,79,0.00,,,0.00,,2013-02-13 22:52:00,
2013-02-13 18:01:00,77.0,70.0,29.89,South,182,7.0,16.0,80,0.00,,,0.00,,2013-02-13 23:01:00,
2013-02-13 18:11:00,77.0,70.0,29.90,South,169,6.0,17.0,80,0.00,,,0.00,,2013-02-13 23:11:00,
2013-02-13 18:21:00,77.0,70.0,29.90,South,169,6.0,17.0,80,0.00,,,0.00,,2013-02-13 23:21:00,
2013-02-13 18:32:00,77.0,70.0,29.90,SSE,159,8.0,11.0,80,0.00,,,0.00,,2013-02-13 23:32:00,
2013-02-13 18:42:00,77.0,70.0,29.90,SSE,159,8.0,11.0,80,0.00,,,0.00,,2013-02-13 23:42:00,
2013-02-13 18:52:00,77.0,71.0,29.91,SSE,161,5.0,11.0,81,0.00,,,0.00,,2013-02-13 23:52:00,
2013-02-13 19:02:00,76.0,70.0,29.91,SE,146,4.0,12.0,82,0.00,,,0.00,,2013-02-14 00:02:00,
2013-02-13 19:11:00,76.0,70.0,29.91,SE,146,4.0,12.0,82,0.00,,,0.00,,2013-02-14 00:11:00,
2013-02-13 19:22:00,76.0,70.0,29.91,SE,146,4.0,12.0,82,0.00,,,0.00,,2013-02-14 00:22:00,
2013-02-13 19:32:00,76.0,70.0,29.92,SE,136,5.0,9.0,83,0.00,,,0.00,,2013-02-14 00:32:00,
2013-02-13 19:42:00,76.0,70.0,29.92,SE,136,5.0,9.0,83,0.00,,,0.00,,2013-02-14 00:42:00,
2013-02-13 19:52:00,76.0,70.0,29.91,SSE,161,4.0,9.0,83,0.00,,,0.00,,2013-02-14 00:52:00,
2013-02-13 20:01:00,76.0,70.0,29.91,South,189,6.0,10.0,83,0.00,,,0.00,,2013-02-14 01:01:00,
2013-02-13 20:11:00,76.0,71.0,29.92,SSE,159,4.0,9.0,84,0.00,,,0.00,,2013-02-14 01:11:00,
2013-02-13 20:21:00,76.0,71.0,29.92,SSE,159,4.0,9.0,84,0.00,,,0.00,,2013-02-14 01:21:00,
2013-02-13 20:32:00,75.0,70.0,29.92,South,169,6.0,9.0,84,0.00,,,0.00,,2013-02-14 01:32:00,
2013-02-13 20:41:00,75.0,70.0,29.92,South,169,6.0,9.0,84,0.00,,,0.00,,2013-02-14 01:41:00,
2013-02-13 20:52:00,75.0,70.0,29.93,South,177,4.0,8.0,84,0.00,,,0.00,,2013-02-14 01:52:00,
2013-02-13 21:01:00,75.0,70.0,29.94,South,183,5.0,7.0,85,0.00,,,0.00,,2013-02-14 02:01:00,
2013-02-13 21:11:00,75.0,70.0,29.94,South,182,5.0,8.0,85,0.00,,,0.00,,2013-02-14 02:11:00,
2013-02-13 21:21:00,75.0,70.0,29.94,South,182,5.0,8.0,85,0.00,,,0.00,,2013-02-14 02:21:00,
2013-02-13 21:31:00,75.0,70.0,29.94,South,171,5.0,7.0,85,0.00,,,0.00,,2013-02-14 02:31:00,
2013-02-13 21:41:00,75.0,70.0,29.94,South,171,5.0,7.0,85,0.00,,,0.00,,2013-02-14 02:41:00,
2013-02-13 21:52:00,75.0,70.0,29.94,South,171,5.0,7.0,85,0.00,,,0.00,,2013-02-14 02:52:00,
2013-02-13 22:02:00,74.0,70.0,29.95,South,181,5.0,8.0,86,0.00,,,0.00,,2013-02-14 03:02:00,
2013-02-13 22:11:00,74.0,70.0,29.95,South,182,4.0,9.0,86,0.00,,,0.00,,2013-02-14 03:11:00,
2013-02-13 22:22:00,74.0,70.0,29.95,South,182,4.0,9.0,86,0.00,,,0.00,,2013-02-14 03:22:00,
2013-02-13 22:31:00,74.0,70.0,29.95,South,178,4.0,7.0,86,0.00,,,0.00,,2013-02-14 03:31:00,
2013-02-13 22:42:00,74.0,70.0,29.95,South,179,4.0,8.0,87,0.00,,,0.00,,2013-02-14 03:42:00,
2013-02-13 22:52:00,74.0,70.0,29.95,South,179,4.0,8.0,87,0.00,,,0.00,,2013-02-14 03:52:00,
2013-02-13 23:01:00,74.0,70.0,29.96,South,182,4.0,7.0,87,0.00,,,0.00,,2013-02-14 04:01:00,
2013-02-13 23:12:00,74.0,70.0,29.96,South,186,4.0,7.0,87,0.00,,,0.00,,2013-02-14 04:12:00,
2013-02-13 23:21:00,74.0,70.0,29.96,South,186,4.0,7.0,87,0.00,,,0.00,,2013-02-14 04:21:00,
2013-02-13 23:32:00,74.0,70.0,29.96,South,183,4.0,8.0,88,0.00,,,0.00,,2013-02-14 04:32:00,
2013-02-13 23:41:00,74.0,70.0,29.96,South,183,4.0,8.0,88,0.00,,,0.00,,2013-02-14 04:41:00,
2013-02-13 23:52:00,74.0,70.0,29.96,South,183,4.0,8.0,88,0.00,,,0.00,,2013-02-14 04:52:00,